Location: Olsztyn
(53.7767°N, 20.4765°E)
Time: 23:25:38
(UTC+02:00)

Transit 4A - Pass Details

Date: 25 July 2024
Orbit: 863 x 978 km, 66.8° (Epoch: 27 April)

Event Time Altitude Azimuth Distance (km) Brightness Sun altitude
Rises 22:14:28 0° 316° (NW) 3,483 13.0 -10.0°
Reaches altitude 10° 22:17:02 10° 323° (NW) 2,554 11.8 -10.2°
Maximum altitude 22:22:44 47° 37° (NE) 1,184 8.6 -10.7°
Drops below altitude 10° 22:28:34 10° 110° (ESE) 2,617 9.8 -11.2°
Enters shadow 22:29:06 - 112° (ESE) 2,803 9.9 -11.2°
